Time,TemperatureF,DewpointF,PressureIn,WindDirection,WindDirectionDegrees,WindSpeedMPH,WindSpeedGustMPH,Humidity,HourlyPrecipIn,Conditions,Clouds,dailyrainin,SoftwareType,DateUTC
2013-04-14 00:00:00,45.0,37.2,29.67,ENE,77,12.0,13.0,74,0.00,,,0.00,Wunderground v.1.15,2013-04-14 05:00:00,
2013-04-14 00:05:00,45.0,37.2,29.66,ESE,103,14.0,14.0,74,0.00,,,0.00,Wunderground v.1.15,2013-04-14 05:05:00,
2013-04-14 00:10:00,45.0,37.6,29.65,ENE,71,14.0,16.0,75,0.00,,,0.00,Wunderground v.1.15,2013-04-14 05:10:00,
2013-04-14 00:20:00,44.8,37.4,29.66,East,98,12.0,12.0,75,0.00,,,0.00,Wunderground v.1.15,2013-04-14 05:20:00,
2013-04-14 00:25:00,44.8,37.4,29.66,East,97,11.0,12.0,75,0.00,,,0.00,Wunderground v.1.15,2013-04-14 05:25:00,
2013-04-14 00:35:00,45.1,37.6,29.70,SE,141,7.0,11.0,75,0.00,,,0.00,Wunderground v.1.15,2013-04-14 05:35:00,
2013-04-14 00:45:00,45.0,38.2,29.69,East,96,4.0,4.0,77,0.20,,,0.03,Wunderground v.1.15,2013-04-14 05:45:00,
2013-04-14 00:50:00,44.9,38.5,29.67,East,92,7.0,7.0,78,0.19,,,0.04,Wunderground v.1.15,2013-04-14 05:50:00,
2013-04-14 01:00:00,44.2,38.4,29.65,East,98,11.0,14.0,80,0.05,,,0.04,Wunderground v.1.15,2013-04-14 06:00:00,
2013-04-14 01:05:00,43.8,38.3,29.64,ENE,69,13.0,14.0,81,0.00,,,0.04,Wunderground v.1.15,2013-04-14 06:05:00,
2013-04-14 01:14:00,43.4,38.6,29.65,NE,52,10.0,12.0,83,0.00,,,0.04,Wunderground v.1.15,2013-04-14 06:14:00,
2013-04-14 01:20:00,43.3,38.5,29.65,ENE,73,8.0,9.0,83,0.00,,,0.05,Wunderground v.1.15,2013-04-14 06:20:00,
2013-04-14 01:25:00,43.2,38.4,29.65,East,79,8.0,13.0,83,0.00,,,0.05,Wunderground v.1.15,2013-04-14 06:25:00,
2013-04-14 01:35:00,43.1,38.6,29.64,ENE,78,10.0,13.0,84,0.00,,,0.05,Wunderground v.1.15,2013-04-14 06:35:00,
2013-04-14 01:44:00,43.0,38.5,29.63,East,87,11.0,11.0,84,0.00,,,0.05,Wunderground v.1.15,2013-04-14 06:44:00,
2013-04-14 01:50:00,43.0,38.5,29.64,ENE,76,10.0,10.0,84,0.00,,,0.05,Wunderground v.1.15,2013-04-14 06:50:00,
2013-04-14 02:00:00,43.0,38.8,29.64,ENE,69,10.0,10.0,85,0.00,,,0.05,Wunderground v.1.15,2013-04-14 07:00:00,
2013-04-14 02:05:00,43.0,38.8,29.63,ENE,65,10.0,10.0,85,0.00,,,0.05,Wunderground v.1.15,2013-04-14 07:05:00,
2013-04-14 02:15:00,42.9,38.7,29.62,ENE,77,10.0,12.0,85,0.00,,,0.05,Wunderground v.1.15,2013-04-14 07:15:00,
2013-04-14 02:25:00,42.8,38.6,29.62,ENE,65,11.0,11.0,85,0.00,,,0.05,Wunderground v.1.15,2013-04-14 07:25:00,
2013-04-14 02:30:00,42.8,38.6,29.62,ENE,77,10.0,10.0,85,0.00,,,0.05,Wunderground v.1.15,2013-04-14 07:30:00,
2013-04-14 02:40:00,42.8,38.6,29.62,ENE,69,8.0,8.0,85,0.00,,,0.05,Wunderground v.1.15,2013-04-14 07:40:00,
2013-04-14 02:50:00,42.8,38.9,29.60,ENE,59,8.0,9.0,86,0.00,,,0.06,Wunderground v.1.15,2013-04-14 07:50:00,
2013-04-14 02:55:00,42.8,38.9,29.60,NE,49,8.0,9.0,86,0.00,,,0.06,Wunderground v.1.15,2013-04-14 07:55:00,
2013-04-14 03:05:00,42.8,38.9,29.60,ENE,59,8.0,8.0,86,0.00,,,0.06,Wunderground v.1.15,2013-04-14 08:05:00,
2013-04-14 03:15:00,42.8,38.9,29.58,NE,53,8.0,10.0,86,0.00,,,0.06,Wunderground v.1.15,2013-04-14 08:15:00,
2013-04-14 11:15:00,65.4,53.7,29.33,South,183,12.0,12.0,66,0.00,,,0.07,Wunderground v.1.15,2013-04-14 16:15:00,
2013-04-14 11:20:00,66.0,53.5,29.33,SSE,167,12.0,12.0,64,0.00,,,0.07,Wunderground v.1.15,2013-04-14 16:20:00,
2013-04-14 11:29:00,66.1,53.6,29.33,SSE,163,13.0,20.0,64,0.00,,,0.07,Wunderground v.1.15,2013-04-14 16:29:00,
2013-04-14 11:35:00,66.2,53.7,29.33,SE,140,11.0,11.0,64,0.00,,,0.07,Wunderground v.1.15,2013-04-14 16:35:00,
2013-04-14 11:45:00,67.3,53.8,29.33,SSW,202,9.0,17.0,62,0.00,,,0.07,Wunderground v.1.15,2013-04-14 16:45:00,
2013-04-14 11:50:00,66.7,53.3,29.33,SSE,165,12.0,17.0,62,0.00,,,0.07,Wunderground v.1.15,2013-04-14 16:50:00,
2013-04-14 12:00:00,65.8,52.9,29.32,SE,138,13.0,13.0,63,0.00,,,0.07,Wunderground v.1.15,2013-04-14 17:00:00,
2013-04-14 12:05:00,65.7,53.2,29.32,SSW,198,12.0,13.0,64,0.00,,,0.07,Wunderground v.1.15,2013-04-14 17:05:00,
2013-04-14 12:15:00,65.6,52.7,29.32,South,189,14.0,16.0,63,0.00,,,0.07,Wunderground v.1.15,2013-04-14 17:15:00,
2013-04-14 12:25:00,65.6,51.8,29.33,SW,214,17.0,22.0,61,0.00,,,0.07,Wunderground v.1.15,2013-04-14 17:25:00,
2013-04-14 12:35:00,66.4,52.1,29.33,SW,215,16.0,18.0,60,0.00,,,0.07,Wunderground v.1.15,2013-04-14 17:35:00,
2013-04-14 12:40:00,66.7,51.9,29.33,South,186,15.0,15.0,59,0.00,,,0.07,Wunderground v.1.15,2013-04-14 17:40:00,
2013-04-14 12:45:00,67.1,52.7,29.32,SSW,194,13.0,15.0,60,0.00,,,0.07,Wunderground v.1.15,2013-04-14 17:45:00,
2013-04-14 12:55:00,67.2,51.9,29.32,SW,219,15.0,15.0,58,0.00,,,0.07,Wunderground v.1.15,2013-04-14 17:55:00,
2013-04-14 13:05:00,67.3,52.0,29.32,SSW,197,17.0,24.0,58,0.00,,,0.07,Wunderground v.1.15,2013-04-14 18:05:00,
2013-04-14 13:15:00,67.6,52.8,29.32,SW,225,14.0,17.0,59,0.00,,,0.07,Wunderground v.1.15,2013-04-14 18:15:00,
2013-04-14 13:20:00,67.5,52.2,29.32,SSW,200,14.0,21.0,58,0.00,,,0.07,Wunderground v.1.15,2013-04-14 18:20:00,
2013-04-14 13:30:00,68.2,52.4,29.33,SSW,203,14.0,14.0,57,0.00,,,0.07,Wunderground v.1.15,2013-04-14 18:30:00,
2013-04-14 13:35:00,68.4,53.0,29.33,South,190,15.0,15.0,58,0.00,,,0.07,Wunderground v.1.15,2013-04-14 18:35:00,
2013-04-14 13:45:00,68.0,50.7,29.34,WSW,239,16.0,16.0,54,0.00,,,0.07,Wunderground v.1.15,2013-04-14 18:45:00,
2013-04-14 13:55:00,66.3,50.6,29.36,WSW,247,18.0,24.0,57,0.00,,,0.07,Wunderground v.1.15,2013-04-14 18:55:00,
2013-04-14 14:05:00,61.8,49.5,29.38,WSW,237,17.0,20.0,64,0.00,,,0.07,Wunderground v.1.15,2013-04-14 19:05:00,
2013-04-14 14:15:00,60.5,49.1,29.38,West,268,14.0,18.0,66,0.00,,,0.07,Wunderground v.1.15,2013-04-14 19:15:00,
2013-04-14 14:20:00,60.3,49.3,29.39,WSW,251,13.0,13.0,67,0.00,,,0.07,Wunderground v.1.15,2013-04-14 19:20:00,
2013-04-14 14:30:00,59.8,48.4,29.39,WSW,257,9.0,9.0,66,0.00,,,0.07,Wunderground v.1.15,2013-04-14 19:30:00,
2013-04-14 14:39:00,59.4,48.0,29.40,SW,234,9.0,11.0,66,0.00,,,0.07,Wunderground v.1.15,2013-04-14 19:39:00,
2013-04-14 14:45:00,59.0,48.1,29.41,West,277,9.0,11.0,67,0.00,,,0.07,Wunderground v.1.15,2013-04-14 19:45:00,
2013-04-14 14:55:00,58.9,47.6,29.41,WSW,239,8.0,12.0,66,0.00,,,0.07,Wunderground v.1.15,2013-04-14 19:55:00,
2013-04-14 15:00:00,58.6,47.7,29.42,WSW,251,9.0,9.0,67,0.00,,,0.07,Wunderground v.1.15,2013-04-14 20:00:00,
2013-04-14 15:05:00,58.2,47.3,29.42,West,263,10.0,12.0,67,0.00,,,0.07,Wunderground v.1.15,2013-04-14 20:05:00,
2013-04-14 15:14:00,57.6,47.5,29.42,WSW,244,10.0,13.0,69,0.00,,,0.07,Wunderground v.1.15,2013-04-14 20:14:00,
2013-04-14 15:19:00,57.4,47.3,29.43,WSW,250,8.0,10.0,69,0.00,,,0.07,Wunderground v.1.15,2013-04-14 20:19:00,
2013-04-14 15:25:00,57.1,47.4,29.43,WSW,254,8.0,10.0,70,0.00,,,0.07,Wunderground v.1.15,2013-04-14 20:25:00,
2013-04-14 15:35:00,56.5,46.8,29.44,WSW,257,9.0,9.0,70,0.00,,,0.07,Wunderground v.1.15,2013-04-14 20:35:00,
2013-04-14 15:40:00,56.3,47.0,29.45,WSW,244,9.0,12.0,71,0.00,,,0.07,Wunderground v.1.15,2013-04-14 20:40:00,
2013-04-14 15:50:00,56.0,47.5,29.44,West,259,7.0,7.0,73,0.00,,,0.07,Wunderground v.1.15,2013-04-14 20:50:00,
2013-04-14 15:59:00,56.3,48.1,29.45,SW,228,7.0,8.0,74,0.00,,,0.07,Wunderground v.1.15,2013-04-14 20:59:00,
2013-04-14 16:05:00,56.9,48.7,29.45,SW,232,9.0,9.0,74,0.00,,,0.07,Wunderground v.1.15,2013-04-14 21:05:00,
2013-04-14 16:15:00,57.7,49.1,29.45,SW,228,9.0,13.0,73,0.00,,,0.07,Wunderground v.1.15,2013-04-14 21:15:00,
2013-04-14 16:20:00,57.8,48.5,29.45,West,262,9.0,13.0,71,0.00,,,0.07,Wunderground v.1.15,2013-04-14 21:20:00,
2013-04-14 16:30:00,58.0,49.0,29.45,WSW,248,9.0,15.0,72,0.00,,,0.07,Wunderground v.1.15,2013-04-14 21:30:00,
2013-04-14 16:39:00,58.6,48.8,29.45,WSW,250,9.0,9.0,70,0.00,,,0.07,Wunderground v.1.15,2013-04-14 21:39:00,
2013-04-14 16:45:00,59.0,48.8,29.45,West,265,9.0,9.0,69,0.00,,,0.07,Wunderground v.1.15,2013-04-14 21:45:00,
2013-04-14 16:55:00,60.0,47.8,29.44,WSW,254,11.0,15.0,64,0.00,,,0.07,Wunderground v.1.15,2013-04-14 21:55:00,
2013-04-14 17:00:00,60.5,47.8,29.44,WSW,242,10.0,10.0,63,0.00,,,0.07,Wunderground v.1.15,2013-04-14 22:00:00,
2013-04-14 17:05:00,61.0,48.7,29.44,West,273,8.0,10.0,64,0.00,,,0.07,Wunderground v.1.15,2013-04-14 22:05:00,
2013-04-14 17:15:00,61.5,47.9,29.45,West,275,7.0,8.0,61,0.00,,,0.07,Wunderground v.1.15,2013-04-14 22:15:00,
2013-04-14 17:20:00,61.1,46.2,29.45,West,280,9.0,13.0,58,0.00,,,0.07,Wunderground v.1.15,2013-04-14 22:20:00,
2013-04-14 17:29:00,60.3,45.0,29.46,West,275,11.0,15.0,57,0.00,,,0.07,Wunderground v.1.15,2013-04-14 22:29:00,
2013-04-14 17:35:00,60.1,45.3,29.47,WSW,256,11.0,15.0,58,0.00,,,0.07,Wunderground v.1.15,2013-04-14 22:35:00,
2013-04-14 17:45:00,59.9,44.6,29.47,WNW,283,10.0,19.0,57,0.00,,,0.07,Wunderground v.1.15,2013-04-14 22:45:00,
2013-04-14 17:55:00,59.5,43.3,29.49,West,276,10.0,13.0,55,0.00,,,0.07,Wunderground v.1.15,2013-04-14 22:55:00,
2013-04-14 18:05:00,59.1,42.9,29.50,WNW,287,9.0,9.0,55,0.00,,,0.07,Wunderground v.1.15,2013-04-14 23:05:00,
2013-04-14 18:14:00,59.0,43.3,29.50,West,279,8.0,9.0,56,0.00,,,0.07,Wunderground v.1.15,2013-04-14 23:14:00,
2013-04-14 18:20:00,58.6,42.9,29.50,West,263,7.0,7.0,56,0.00,,,0.07,Wunderground v.1.15,2013-04-14 23:20:00,
2013-04-14 18:30:00,58.2,43.0,29.51,WSW,245,5.0,5.0,57,0.00,,,0.07,Wunderground v.1.15,2013-04-14 23:30:00,
2013-04-14 18:35:00,58.1,43.4,29.51,WSW,250,5.0,6.0,58,0.00,,,0.07,Wunderground v.1.15,2013-04-14 23:35:00,
2013-04-14 18:45:00,57.9,43.7,29.52,WSW,248,4.0,5.0,59,0.00,,,0.07,Wunderground v.1.15,2013-04-14 23:45:00,
2013-04-14 18:50:00,57.8,43.1,29.51,WSW,248,5.0,11.0,58,0.00,,,0.07,Wunderground v.1.15,2013-04-14 23:50:00,
2013-04-14 19:00:00,57.7,41.2,29.52,WSW,247,8.0,14.0,54,0.00,,,0.07,Wunderground v.1.15,2013-04-15 00:00:00,
2013-04-14 19:05:00,57.7,40.7,29.52,SW,233,8.0,14.0,53,0.00,,,0.07,Wunderground v.1.15,2013-04-15 00:05:00,
2013-04-14 19:14:00,57.5,40.0,29.52,WSW,239,7.0,9.0,52,0.00,,,0.07,Wunderground v.1.15,2013-04-15 00:14:00,
2013-04-14 19:20:00,57.5,39.5,29.52,WSW,251,7.0,9.0,51,0.00,,,0.07,Wunderground v.1.15,2013-04-15 00:20:00,
2013-04-14 19:25:00,57.4,39.4,29.53,SW,232,7.0,9.0,51,0.00,,,0.07,Wunderground v.1.15,2013-04-15 00:25:00,
2013-04-14 19:35:00,57.3,39.8,29.53,SW,233,7.0,10.0,52,0.00,,,0.07,Wunderground v.1.15,2013-04-15 00:35:00,
2013-04-14 19:45:00,57.2,39.2,29.53,WSW,249,12.0,15.0,51,0.00,,,0.07,Wunderground v.1.15,2013-04-15 00:45:00,
2013-04-14 19:54:00,57.0,38.5,29.53,WSW,246,13.0,16.0,50,0.00,,,0.07,Wunderground v.1.15,2013-04-15 00:54:00,
2013-04-14 20:00:00,56.8,37.3,29.55,West,270,13.0,13.0,48,0.00,,,0.07,Wunderground v.1.15,2013-04-15 01:00:00,
2013-04-14 20:05:00,56.7,37.7,29.55,West,267,12.0,13.0,49,0.00,,,0.07,Wunderground v.1.15,2013-04-15 01:05:00,
2013-04-14 20:15:00,56.3,37.4,29.56,West,271,11.0,11.0,49,0.00,,,0.07,Wunderground v.1.15,2013-04-15 01:15:00,
2013-04-14 20:25:00,55.8,36.9,29.57,West,275,11.0,11.0,49,0.00,,,0.07,Wunderground v.1.15,2013-04-15 01:25:00,
2013-04-14 20:35:00,55.4,36.5,29.57,WSW,254,10.0,11.0,49,0.00,,,0.07,Wunderground v.1.15,2013-04-15 01:35:00,
2013-04-14 20:40:00,55.2,36.9,29.58,West,281,10.0,10.0,50,0.00,,,0.07,Wunderground v.1.15,2013-04-15 01:40:00,
2013-04-14 20:50:00,54.8,36.5,29.58,WSW,256,8.0,8.0,50,0.00,,,0.07,Wunderground v.1.15,2013-04-15 01:50:00,
2013-04-14 21:00:00,54.5,36.7,29.59,West,279,8.0,8.0,51,0.00,,,0.07,Wunderground v.1.15,2013-04-15 02:00:00,
2013-04-14 21:05:00,54.3,36.5,29.59,West,280,9.0,9.0,51,0.00,,,0.07,Wunderground v.1.15,2013-04-15 02:05:00,
2013-04-14 21:15:00,54.1,36.9,29.60,West,277,8.0,9.0,52,0.00,,,0.07,Wunderground v.1.15,2013-04-15 02:15:00,
2013-04-14 21:25:00,53.7,36.5,29.60,West,275,7.0,11.0,52,0.00,,,0.07,Wunderground v.1.15,2013-04-15 02:25:00,
2013-04-14 21:35:00,53.3,35.6,29.61,West,267,8.0,12.0,51,0.00,,,0.07,Wunderground v.1.15,2013-04-15 02:35:00,
2013-04-14 21:40:00,53.1,35.9,29.61,West,278,7.0,7.0,52,0.00,,,0.07,Wunderground v.1.15,2013-04-15 02:40:00,
2013-04-14 21:50:00,52.6,34.5,29.61,WNW,292,9.0,12.0,50,0.00,,,0.07,Wunderground v.1.15,2013-04-15 02:50:00,
2013-04-14 21:55:00,52.4,34.3,29.62,West,273,8.0,12.0,50,0.00,,,0.07,Wunderground v.1.15,2013-04-15 02:55:00,
2013-04-14 22:05:00,51.8,34.7,29.62,WSW,249,6.0,10.0,52,0.00,,,0.07,Wunderground v.1.15,2013-04-15 03:05:00,
2013-04-14 22:15:00,51.2,34.6,29.63,WSW,251,5.0,6.0,53,0.00,,,0.07,Wunderground v.1.15,2013-04-15 03:15:00,
2013-04-14 22:20:00,50.8,34.7,29.62,West,276,5.0,8.0,54,0.00,,,0.07,Wunderground v.1.15,2013-04-15 03:20:00,
2013-04-14 22:30:00,50.1,34.1,29.64,West,279,6.0,6.0,54,0.00,,,0.07,Wunderground v.1.15,2013-04-15 03:30:00,
2013-04-14 22:40:00,49.4,33.9,29.64,West,275,5.0,5.0,55,0.00,,,0.07,Wunderground v.1.15,2013-04-15 03:40:00,
2013-04-14 22:45:00,49.1,33.6,29.64,West,263,5.0,5.0,55,0.00,,,0.07,Wunderground v.1.15,2013-04-15 03:45:00,
2013-04-14 22:55:00,48.6,33.6,29.64,West,279,3.0,4.0,56,0.00,,,0.07,Wunderground v.1.15,2013-04-15 03:55:00,
2013-04-14 23:00:00,48.4,33.4,29.64,West,279,3.0,3.0,56,0.00,,,0.07,Wunderground v.1.15,2013-04-15 04:00:00,
2013-04-14 23:05:00,48.1,33.1,29.64,West,279,2.0,3.0,56,0.00,,,0.07,Wunderground v.1.15,2013-04-15 04:05:00,
2013-04-14 23:14:00,47.6,33.1,29.65,West,279,2.0,2.0,57,0.00,,,0.07,Wunderground v.1.15,2013-04-15 04:14:00,
2013-04-14 23:20:00,47.3,32.8,29.65,West,279,2.0,2.0,57,0.00,,,0.07,Wunderground v.1.15,2013-04-15 04:20:00,
2013-04-14 23:30:00,46.7,32.7,29.65,West,279,2.0,2.0,58,0.00,,,0.07,Wunderground v.1.15,2013-04-15 04:30:00,
2013-04-14 23:35:00,46.5,32.9,29.65,West,279,2.0,2.0,59,0.00,,,0.07,Wunderground v.1.15,2013-04-15 04:35:00,
2013-04-14 23:40:00,46.2,32.7,29.65,West,279,2.0,2.0,59,0.00,,,0.07,Wunderground v.1.15,2013-04-15 04:40:00,
2013-04-14 23:50:00,45.8,32.3,29.65,West,279,2.0,2.0,59,0.00,,,0.07,Wunderground v.1.15,2013-04-15 04:50:00,